Time,TemperatureF,DewpointF,PressureIn,WindDirection,WindDirectionDegrees,WindSpeedMPH,WindSpeedGustMPH,Humidity,HourlyPrecipIn,Conditions,Clouds,dailyrainin,SoftwareType,DateUTC
2013-08-23 00:04:00,75.0,69.2,29.89,NE,46,0.0,-999.0,82,0.00,,,0.00,PyWeather,2013-08-23 10:04:00,
2013-08-23 00:09:00,75.0,69.2,29.89,NE,47,0.0,-999.0,82,0.00,,,0.00,PyWeather,2013-08-23 10:09:00,
2013-08-23 00:14:00,75.1,69.3,29.89,NE,46,0.0,-999.0,82,0.00,,,0.00,PyWeather,2013-08-23 10:14:00,
2013-08-23 00:19:00,75.2,69.4,29.89,NE,46,0.0,-999.0,82,0.00,,,0.00,PyWeather,2013-08-23 10:19:00,
2013-08-23 00:24:00,75.3,69.5,29.89,NE,46,0.0,-999.0,82,0.00,,,0.00,PyWeather,2013-08-23 10:24:00,
2013-08-23 00:29:00,74.9,68.8,29.89,North,360,1.0,-999.0,81,0.00,,,0.00,PyWeather,2013-08-23 10:29:00,
2013-08-23 00:34:00,74.4,68.6,29.89,North,360,1.0,-999.0,82,0.00,,,0.00,PyWeather,2013-08-23 10:34:00,
2013-08-23 00:39:00,74.3,68.5,29.89,North,360,0.0,-999.0,82,0.00,,,0.00,PyWeather,2013-08-23 10:39:00,
2013-08-23 00:44:00,74.4,69.0,29.89,North,360,0.0,-999.0,83,0.00,,,0.00,PyWeather,2013-08-23 10:44:00,
2013-08-23 00:49:00,74.7,69.3,29.89,North,360,0.0,-999.0,83,0.00,,,0.00,PyWeather,2013-08-23 10:49:00,
2013-08-23 00:54:00,74.5,69.1,29.89,North,360,0.0,-999.0,83,0.00,,,0.00,PyWeather,2013-08-23 10:54:00,
2013-08-23 00:59:00,74.4,69.0,29.89,North,360,0.0,-999.0,83,0.00,,,0.00,PyWeather,2013-08-23 10:59:00,
2013-08-23 01:04:00,74.5,69.4,29.88,North,360,0.0,-999.0,84,0.00,,,0.00,PyWeather,2013-08-23 11:04:00,
2013-08-23 01:09:00,74.7,69.6,29.89,North,360,0.0,-999.0,84,0.00,,,0.00,PyWeather,2013-08-23 11:09:00,
2013-08-23 01:14:00,74.9,69.8,29.89,NNE,15,1.0,-999.0,84,0.00,,,0.00,PyWeather,2013-08-23 11:14:00,
2013-08-23 01:19:00,74.9,69.8,29.89,North,360,4.0,-999.0,84,0.00,,,0.00,PyWeather,2013-08-23 11:19:00,
2013-08-23 01:24:00,74.7,70.3,29.89,NNW,342,6.0,-999.0,86,0.00,,,0.00,PyWeather,2013-08-23 11:24:00,
2013-08-23 01:29:00,74.6,70.2,29.89,NNW,346,7.0,-999.0,86,0.00,,,0.00,PyWeather,2013-08-23 11:29:00,
2013-08-23 01:34:00,74.4,70.3,29.88,North,9,8.0,-999.0,87,0.00,,,0.00,PyWeather,2013-08-23 11:34:00,
2013-08-23 01:39:00,74.4,70.3,29.88,North,355,9.0,-999.0,87,0.00,,,0.00,PyWeather,2013-08-23 11:39:00,
2013-08-23 01:44:00,74.5,70.4,29.88,NNW,342,8.0,-999.0,87,0.00,,,0.00,PyWeather,2013-08-23 11:44:00,
2013-08-23 01:49:00,74.6,70.5,29.88,NNW,348,7.0,-999.0,87,0.00,,,0.00,PyWeather,2013-08-23 11:49:00,
2013-08-23 01:54:00,74.8,71.0,29.88,NNW,342,7.0,-999.0,88,0.00,,,0.00,PyWeather,2013-08-23 11:54:00,
2013-08-23 01:59:00,74.8,70.7,29.88,NNW,348,6.0,-999.0,87,0.00,,,0.00,PyWeather,2013-08-23 11:59:00,
2013-08-23 02:04:00,75.0,70.9,29.88,NNW,348,6.0,-999.0,87,0.00,,,0.00,PyWeather,2013-08-23 12:04:00,
2013-08-23 02:09:00,74.9,70.8,29.87,North,355,7.0,-999.0,87,0.00,,,0.00,PyWeather,2013-08-23 12:09:00,
2013-08-23 02:14:00,74.8,71.0,29.87,NNW,348,7.0,-999.0,88,0.00,,,0.00,PyWeather,2013-08-23 12:14:00,
2013-08-23 02:19:00,74.8,71.0,29.87,North,360,7.0,-999.0,88,0.00,,,0.00,PyWeather,2013-08-23 12:19:00,
2013-08-23 02:24:00,74.7,70.9,29.87,North,355,8.0,-999.0,88,0.00,,,0.00,PyWeather,2013-08-23 12:24:00,
2013-08-23 02:29:00,74.7,70.9,29.87,North,9,7.0,-999.0,88,0.00,,,0.00,PyWeather,2013-08-23 12:29:00,
2013-08-23 02:34:00,74.7,70.9,29.87,North,5,6.0,-999.0,88,0.00,,,0.00,PyWeather,2013-08-23 12:34:00,
2013-08-23 02:39:00,74.4,70.6,29.87,North,5,6.0,-999.0,88,0.00,,,0.00,PyWeather,2013-08-23 12:39:00,
2013-08-23 02:44:00,74.3,70.8,29.87,North,355,5.0,-999.0,89,0.00,,,0.00,PyWeather,2013-08-23 12:44:00,
2013-08-23 02:49:00,74.3,70.8,29.86,NNW,344,6.0,-999.0,89,0.00,,,0.00,PyWeather,2013-08-23 12:49:00,
2013-08-23 02:54:00,74.2,70.7,29.86,NNW,329,6.0,-999.0,89,0.00,,,0.00,PyWeather,2013-08-23 12:54:00,
2013-08-23 02:59:00,74.2,71.1,29.86,NW,326,6.0,-999.0,90,0.00,,,0.00,PyWeather,2013-08-23 12:59:00,
2013-08-23 03:04:00,74.3,71.2,29.86,North,355,6.0,-999.0,90,0.00,,,0.00,PyWeather,2013-08-23 13:04:00,
2013-08-23 03:09:00,74.4,70.9,29.86,North,355,6.0,-999.0,89,0.00,,,0.00,PyWeather,2013-08-23 13:09:00,
2013-08-23 03:14:00,74.4,70.9,29.86,NNE,27,4.0,-999.0,89,0.00,,,0.00,PyWeather,2013-08-23 13:14:00,
2013-08-23 03:19:00,74.4,70.9,29.86,NE,34,2.0,-999.0,89,0.00,,,0.00,PyWeather,2013-08-23 13:19:00,
2013-08-23 03:24:00,74.2,70.7,29.86,NE,35,1.0,-999.0,89,0.00,,,0.00,PyWeather,2013-08-23 13:24:00,
2013-08-23 03:29:00,74.2,70.7,29.86,NE,34,0.0,-999.0,89,0.00,,,0.00,PyWeather,2013-08-23 13:29:00,
2013-08-23 03:34:00,74.1,70.6,29.86,NNW,340,1.0,-999.0,89,0.00,,,0.00,PyWeather,2013-08-23 13:34:00,
2013-08-23 03:39:00,73.9,70.1,29.86,NNW,340,2.0,-999.0,88,0.00,,,0.00,PyWeather,2013-08-23 13:39:00,
2013-08-23 03:44:00,74.1,70.0,29.86,North,351,4.0,-999.0,87,0.00,,,0.00,PyWeather,2013-08-23 13:44:00,
2013-08-23 03:49:00,74.5,69.7,29.86,NNE,14,5.0,-999.0,85,0.00,,,0.00,PyWeather,2013-08-23 13:49:00,
2013-08-23 03:54:00,74.7,69.9,29.86,NNE,13,2.0,-999.0,85,0.00,,,0.00,PyWeather,2013-08-23 13:54:00,
2013-08-23 03:59:00,74.8,69.7,29.86,NE,40,0.0,10.0,84,0.00,,,0.00,PyWeather,2013-08-23 13:59:00,
2013-08-23 04:04:00,74.8,69.7,29.86,East,101,0.0,10.0,84,0.00,,,0.00,PyWeather,2013-08-23 14:04:00,
2013-08-23 04:09:00,74.9,69.8,29.86,NE,34,1.0,-999.0,84,0.00,,,0.00,PyWeather,2013-08-23 14:09:00,
2013-08-23 04:14:00,74.6,69.8,29.86,NE,44,2.0,-999.0,85,0.00,,,0.00,PyWeather,2013-08-23 14:14:00,
2013-08-23 04:19:00,74.6,69.8,29.86,NE,40,1.0,-999.0,85,0.00,,,0.00,PyWeather,2013-08-23 14:19:00,
2013-08-23 04:24:00,74.8,70.0,29.87,NE,40,1.0,-999.0,85,0.00,,,0.00,PyWeather,2013-08-23 14:24:00,
2013-08-23 04:29:00,74.8,70.0,29.86,NE,40,0.0,-999.0,85,0.00,,,0.00,PyWeather,2013-08-23 14:29:00,
2013-08-23 04:34:00,74.7,69.9,29.86,NE,40,0.0,-999.0,85,0.00,,,0.00,PyWeather,2013-08-23 14:34:00,
2013-08-23 04:39:00,74.8,70.0,29.86,NE,41,0.0,-999.0,85,0.00,,,0.00,PyWeather,2013-08-23 14:39:00,
2013-08-23 04:44:00,74.8,70.0,29.86,NE,40,0.0,-999.0,85,0.00,,,0.00,PyWeather,2013-08-23 14:44:00,
2013-08-23 04:49:00,74.6,69.5,29.86,NE,39,0.0,-999.0,84,0.00,,,0.00,PyWeather,2013-08-23 14:49:00,
2013-08-23 04:54:00,74.6,69.5,29.86,NE,39,0.0,-999.0,84,0.00,,,0.00,PyWeather,2013-08-23 14:54:00,
2013-08-23 04:59:00,74.3,69.2,29.86,NE,39,0.0,-999.0,84,0.00,,,0.00,PyWeather,2013-08-23 14:59:00,
2013-08-23 05:04:00,74.0,68.9,29.86,NE,39,0.0,-999.0,84,0.00,,,0.00,PyWeather,2013-08-23 15:04:00,
2013-08-23 08:18:00,81.1,67.6,29.90,ENE,62,15.0,-999.0,63,0.00,,,0.00,PyWeather,2013-08-23 18:18:00,
2013-08-23 08:41:00,81.1,67.6,29.90,NE,54,15.0,-999.0,63,0.00,,,0.00,PyWeather,2013-08-23 18:41:00,
2013-08-23 08:46:00,81.2,67.2,29.90,NE,36,16.0,24.0,62,0.00,,,0.00,PyWeather,2013-08-23 18:46:00,
2013-08-23 08:51:00,81.6,68.0,29.90,NE,55,14.0,24.0,63,0.00,,,0.00,PyWeather,2013-08-23 18:51:00,
2013-08-23 08:56:00,81.5,67.9,29.90,NNE,28,14.0,22.0,63,0.00,,,0.00,PyWeather,2013-08-23 18:56:00,
2013-08-23 09:01:00,81.5,67.5,29.90,NE,38,14.0,22.0,62,0.00,,,0.00,PyWeather,2013-08-23 19:01:00,
2013-08-23 09:06:00,81.8,67.8,29.90,NE,41,13.0,-999.0,62,0.00,,,0.00,PyWeather,2013-08-23 19:06:00,
2013-08-23 09:11:00,81.8,67.3,29.90,NE,34,14.0,-999.0,61,0.00,,,0.00,PyWeather,2013-08-23 19:11:00,
2013-08-23 09:16:00,82.1,67.6,29.89,NE,39,14.0,22.0,61,0.00,,,0.00,PyWeather,2013-08-23 19:16:00,
2013-08-23 09:21:00,82.3,67.8,29.90,NE,44,13.0,22.0,61,0.00,,,0.00,PyWeather,2013-08-23 19:21:00,
2013-08-23 09:26:00,82.7,67.7,29.89,NNE,30,14.0,23.0,60,0.00,,,0.00,PyWeather,2013-08-23 19:26:00,
2013-08-23 09:31:00,83.0,66.9,29.89,NNE,30,14.0,23.0,58,0.00,,,0.00,PyWeather,2013-08-23 19:31:00,
2013-08-23 09:36:00,83.0,65.9,29.89,NNE,28,15.0,25.0,56,0.00,,,0.00,PyWeather,2013-08-23 19:36:00,
2013-08-23 09:41:00,83.2,67.1,29.89,NE,50,15.0,25.0,58,0.00,,,0.00,PyWeather,2013-08-23 19:41:00,
2013-08-23 09:47:00,83.7,66.0,29.90,NE,42,14.0,22.0,55,0.00,,,0.00,PyWeather,2013-08-23 19:47:00,
2013-08-23 09:52:00,84.1,65.9,29.89,NE,38,13.0,22.0,54,0.00,,,0.00,PyWeather,2013-08-23 19:52:00,
2013-08-23 09:57:00,83.7,66.6,29.89,NNE,25,12.0,21.0,56,0.00,,,0.00,PyWeather,2013-08-23 19:57:00,
2013-08-23 10:02:00,83.8,65.6,29.89,NE,38,13.0,21.0,54,0.00,,,0.00,PyWeather,2013-08-23 20:02:00,
2013-08-23 10:07:00,83.9,67.3,29.89,North,9,12.0,23.0,57,0.00,,,0.00,PyWeather,2013-08-23 20:07:00,
2013-08-23 10:12:00,83.7,67.1,29.89,NE,45,13.0,23.0,57,0.00,,,0.00,PyWeather,2013-08-23 20:12:00,
2013-08-23 10:17:00,84.1,68.0,29.89,North,9,13.0,20.0,58,0.00,,,0.00,PyWeather,2013-08-23 20:17:00,
2013-08-23 10:22:00,84.4,68.8,29.89,NNE,23,11.0,20.0,59,0.00,,,0.00,PyWeather,2013-08-23 20:22:00,
2013-08-23 10:27:00,84.5,68.9,29.89,NNE,19,11.0,18.0,59,0.00,,,0.00,PyWeather,2013-08-23 20:27:00,
2013-08-23 10:32:00,84.5,69.4,29.89,North,11,11.0,18.0,60,0.00,,,0.00,PyWeather,2013-08-23 20:32:00,
2013-08-23 10:37:00,84.3,69.7,29.89,North,360,12.0,22.0,61,0.00,,,0.00,PyWeather,2013-08-23 20:37:00,
2013-08-23 10:42:00,84.5,70.3,29.89,NE,44,13.0,22.0,62,0.00,,,0.00,PyWeather,2013-08-23 20:42:00,
2013-08-23 10:47:00,83.7,69.6,29.89,North,5,13.0,20.0,62,0.00,,,0.00,PyWeather,2013-08-23 20:47:00,
2013-08-23 10:52:00,84.2,70.5,29.89,North,5,14.0,20.0,63,0.00,,,0.00,PyWeather,2013-08-23 20:52:00,
2013-08-23 10:57:00,84.8,70.6,29.88,North,9,14.0,21.0,62,0.00,,,0.00,PyWeather,2013-08-23 20:57:00,
2013-08-23 11:02:00,83.8,70.6,29.88,NNE,16,16.0,21.0,64,0.00,,,0.00,PyWeather,2013-08-23 21:02:00,
2013-08-23 11:07:00,84.2,71.4,29.88,North,355,16.0,24.0,65,0.00,,,0.00,PyWeather,2013-08-23 21:07:00,
2013-08-23 11:12:00,84.5,70.8,29.88,NNW,344,15.0,24.0,63,0.00,,,0.00,PyWeather,2013-08-23 21:12:00,
2013-08-23 11:17:00,84.4,71.2,29.88,NNW,347,16.0,23.0,64,0.00,,,0.00,PyWeather,2013-08-23 21:17:00,
2013-08-23 11:22:00,85.4,71.2,29.88,NNW,339,15.0,23.0,62,0.00,,,0.00,PyWeather,2013-08-23 21:22:00,
2013-08-23 11:27:00,83.7,70.5,29.87,NW,326,17.0,24.0,64,0.00,,,0.00,PyWeather,2013-08-23 21:27:00,
2013-08-23 11:32:00,83.4,70.7,29.87,NNW,341,20.0,24.0,65,0.00,,,0.00,PyWeather,2013-08-23 21:32:00,
2013-08-23 11:37:00,84.3,71.1,29.87,NW,320,19.0,27.0,64,0.00,,,0.00,PyWeather,2013-08-23 21:37:00,
2013-08-23 11:42:00,83.3,71.0,29.87,North,349,19.0,27.0,66,0.00,,,0.00,PyWeather,2013-08-23 21:42:00,
2013-08-23 11:47:00,85.5,71.3,29.86,North,355,17.0,31.0,62,0.00,,,0.00,PyWeather,2013-08-23 21:47:00,
2013-08-23 11:52:00,85.1,70.4,29.86,North,10,14.0,31.0,61,0.00,,,0.00,PyWeather,2013-08-23 21:52:00,
2013-08-23 11:57:00,84.7,69.5,29.86,NNW,348,13.0,21.0,60,0.00,,,0.00,PyWeather,2013-08-23 21:57:00,
2013-08-23 12:02:00,84.3,69.7,29.86,NW,318,13.0,21.0,61,0.00,,,0.00,PyWeather,2013-08-23 22:02:00,
2013-08-23 12:07:00,84.4,68.8,29.86,NNW,345,15.0,24.0,59,0.00,,,0.00,PyWeather,2013-08-23 22:07:00,
2013-08-23 12:12:00,85.5,69.3,29.86,NNW,348,13.0,24.0,58,0.00,,,0.00,PyWeather,2013-08-23 22:12:00,
2013-08-23 12:17:00,85.0,69.8,29.86,NNE,21,10.0,21.0,60,0.00,,,0.00,PyWeather,2013-08-23 22:17:00,
2013-08-23 12:23:00,85.5,69.3,29.86,NE,49,8.0,21.0,58,0.00,,,0.00,PyWeather,2013-08-23 22:23:00,
2013-08-23 12:28:00,86.1,68.8,29.86,NNW,338,9.0,23.0,56,0.00,,,0.00,PyWeather,2013-08-23 22:28:00,
2013-08-23 12:33:00,86.4,69.1,29.85,NNE,15,9.0,23.0,56,0.00,,,0.00,PyWeather,2013-08-23 22:33:00,
2013-08-23 12:38:00,86.6,69.3,29.85,NNW,344,9.0,17.0,56,0.00,,,0.00,PyWeather,2013-08-23 22:38:00,
2013-08-23 12:43:00,85.7,70.5,29.85,NNW,332,12.0,17.0,60,0.00,,,0.00,PyWeather,2013-08-23 22:43:00,
2013-08-23 12:48:00,85.3,69.1,29.85,North,9,15.0,23.0,58,0.00,,,0.00,PyWeather,2013-08-23 22:48:00,
2013-08-23 12:53:00,86.1,70.4,29.84,NNW,333,14.0,23.0,59,0.00,,,0.00,PyWeather,2013-08-23 22:53:00,
2013-08-23 12:58:00,84.7,69.5,29.84,NNW,345,15.0,25.0,60,0.00,,,0.00,PyWeather,2013-08-23 22:58:00,
2013-08-23 13:03:00,86.5,69.2,29.85,North,9,15.0,25.0,56,0.00,,,0.00,PyWeather,2013-08-23 23:03:00,
2013-08-23 13:08:00,85.8,69.6,29.84,NW,317,13.0,23.0,58,0.00,,,0.00,PyWeather,2013-08-23 23:08:00,
2013-08-23 13:13:00,84.8,71.1,29.84,NNW,340,16.0,23.0,63,0.00,,,0.00,PyWeather,2013-08-23 23:13:00,
2013-08-23 13:18:00,84.0,70.8,29.84,North,11,21.0,31.0,64,0.00,,,0.00,PyWeather,2013-08-23 23:18:00,
2013-08-23 13:23:00,83.9,71.6,29.83,NW,322,22.0,31.0,66,0.00,,,0.00,PyWeather,2013-08-23 23:23:00,
2013-08-23 13:28:00,83.7,71.8,29.84,NW,325,22.0,32.0,67,0.00,,,0.00,PyWeather,2013-08-23 23:28:00,
2013-08-23 13:33:00,83.3,71.5,29.83,NW,321,22.0,32.0,67,0.00,,,0.00,PyWeather,2013-08-23 23:33:00,
2013-08-23 13:38:00,84.2,71.0,29.83,NNW,340,21.0,31.0,64,0.00,,,0.00,PyWeather,2013-08-23 23:38:00,
2013-08-23 13:43:00,85.6,69.9,29.83,North,351,19.0,31.0,59,0.00,,,0.00,PyWeather,2013-08-23 23:43:00,
2013-08-23 13:48:00,85.8,70.6,29.83,North,5,16.0,24.0,60,0.00,,,0.00,PyWeather,2013-08-23 23:48:00,
2013-08-23 13:53:00,86.5,69.7,29.83,North,10,13.0,24.0,57,0.00,,,0.00,PyWeather,2013-08-23 23:53:00,
2013-08-23 13:58:00,84.7,68.5,29.83,North,360,14.0,24.0,58,0.00,,,0.00,PyWeather,2013-08-23 23:58:00,
2013-08-23 14:03:00,84.9,70.2,29.83,NE,41,14.0,24.0,61,0.00,,,0.00,PyWeather,2013-08-24 00:03:00,
2013-08-23 14:08:00,85.7,71.5,29.83,North,351,14.0,22.0,62,0.00,,,0.00,PyWeather,2013-08-24 00:08:00,
2013-08-23 14:13:00,86.0,69.8,29.83,North,350,15.0,22.0,58,0.00,,,0.00,PyWeather,2013-08-24 00:13:00,
2013-08-23 14:18:00,85.2,69.5,29.83,North,360,14.0,-999.0,59,0.00,,,0.00,PyWeather,2013-08-24 00:18:00,
2013-08-23 14:23:00,85.7,71.5,29.82,North,351,13.0,-999.0,62,0.00,,,0.00,PyWeather,2013-08-24 00:23:00,
2013-08-23 14:28:00,85.9,70.7,29.82,North,360,14.0,24.0,60,0.00,,,0.00,PyWeather,2013-08-24 00:28:00,
2013-08-23 14:33:00,86.1,71.4,29.82,North,355,15.0,24.0,61,0.00,,,0.00,PyWeather,2013-08-24 00:33:00,
2013-08-23 14:38:00,86.1,71.4,29.82,NNW,345,14.0,-999.0,61,0.00,,,0.00,PyWeather,2013-08-24 00:38:00,
2013-08-23 14:43:00,85.0,71.3,29.82,NNE,26,16.0,-999.0,63,0.00,,,0.00,PyWeather,2013-08-24 00:43:00,
2013-08-23 14:48:00,85.5,71.3,29.82,North,360,16.0,23.0,62,0.00,,,0.00,PyWeather,2013-08-24 00:48:00,
2013-08-23 14:53:00,84.7,70.5,29.82,NNE,12,16.0,23.0,62,0.00,,,0.00,PyWeather,2013-08-24 00:53:00,
2013-08-23 14:58:00,85.2,71.5,29.81,North,10,16.0,24.0,63,0.00,,,0.00,PyWeather,2013-08-24 00:58:00,
2013-08-23 15:03:00,84.7,71.0,29.82,NNW,342,16.0,24.0,63,0.00,,,0.00,PyWeather,2013-08-24 01:03:00,
2013-08-23 15:08:00,84.7,71.0,29.82,North,9,17.0,25.0,63,0.00,,,0.00,PyWeather,2013-08-24 01:08:00,
2013-08-23 15:13:00,84.6,70.9,29.82,NNW,346,16.0,25.0,63,0.00,,,0.00,PyWeather,2013-08-24 01:13:00,
2013-08-23 15:18:00,84.2,71.4,29.82,North,355,16.0,27.0,65,0.00,,,0.00,PyWeather,2013-08-24 01:18:00,
2013-08-23 15:23:00,83.8,71.0,29.82,North,9,18.0,27.0,65,0.00,,,0.00,PyWeather,2013-08-24 01:23:00,
2013-08-23 15:28:00,83.6,70.9,29.81,North,5,18.0,26.0,65,0.00,,,0.00,PyWeather,2013-08-24 01:28:00,
2013-08-23 15:33:00,83.1,70.8,29.81,NNW,346,17.0,26.0,66,0.00,,,0.00,PyWeather,2013-08-24 01:33:00,
2013-08-23 15:38:00,83.2,71.4,29.81,NNW,348,17.0,25.0,67,0.00,,,0.00,PyWeather,2013-08-24 01:38:00,
2013-08-23 15:43:00,83.1,70.8,29.81,North,9,18.0,25.0,66,0.00,,,0.00,PyWeather,2013-08-24 01:43:00,
2013-08-23 15:48:00,83.1,71.3,29.81,North,5,17.0,25.0,67,0.00,,,0.00,PyWeather,2013-08-24 01:48:00,
2013-08-23 15:53:00,83.1,70.8,29.82,NNE,24,17.0,25.0,66,0.00,,,0.00,PyWeather,2013-08-24 01:53:00,
2013-08-23 15:58:00,82.9,71.1,29.82,North,351,18.0,26.0,67,0.00,,,0.00,PyWeather,2013-08-24 01:58:00,
2013-08-23 16:03:00,82.8,71.4,29.81,North,355,18.0,26.0,68,0.00,,,0.00,PyWeather,2013-08-24 02:03:00,
2013-08-23 16:08:00,82.5,71.5,29.81,North,355,19.0,27.0,69,0.00,,,0.00,PyWeather,2013-08-24 02:08:00,
2013-08-23 16:13:00,82.4,71.4,29.82,North,360,19.0,27.0,69,0.00,,,0.00,PyWeather,2013-08-24 02:13:00,
2013-08-23 16:18:00,82.0,71.1,29.81,North,355,19.0,26.0,69,0.00,,,0.00,PyWeather,2013-08-24 02:18:00,
2013-08-23 16:23:00,82.0,71.5,29.81,NNW,344,19.0,26.0,70,0.00,,,0.00,PyWeather,2013-08-24 02:23:00,
2013-08-23 16:28:00,82.1,71.2,29.81,North,349,19.0,27.0,69,0.00,,,0.00,PyWeather,2013-08-24 02:28:00,
2013-08-23 16:33:00,81.6,70.7,29.81,North,355,19.0,27.0,69,0.00,,,0.00,PyWeather,2013-08-24 02:33:00,
2013-08-23 16:38:00,81.5,70.6,29.82,North,355,20.0,28.0,69,0.00,,,0.00,PyWeather,2013-08-24 02:38:00,
2013-08-23 16:43:00,81.4,70.5,29.81,NNW,342,20.0,28.0,69,0.00,,,0.00,PyWeather,2013-08-24 02:43:00,
2013-08-23 16:48:00,80.9,70.8,29.81,North,350,21.0,27.0,71,0.00,,,0.00,PyWeather,2013-08-24 02:48:00,
2013-08-23 16:53:00,80.8,70.7,29.81,NNW,346,21.0,27.0,71,0.00,,,0.00,PyWeather,2013-08-24 02:53:00,
2013-08-23 16:58:00,81.0,70.9,29.82,North,351,20.0,29.0,71,0.00,,,0.00,PyWeather,2013-08-24 02:58:00,
2013-08-23 17:03:00,80.9,71.2,29.81,North,355,20.0,29.0,72,0.00,,,0.00,PyWeather,2013-08-24 03:03:00,
2013-08-23 17:08:00,80.7,71.0,29.81,NNW,335,20.0,28.0,72,0.00,,,0.00,PyWeather,2013-08-24 03:08:00,
2013-08-23 17:13:00,80.7,71.0,29.81,NNW,333,20.0,28.0,72,0.00,,,0.00,PyWeather,2013-08-24 03:13:00,
2013-08-23 17:18:00,80.5,70.9,29.81,North,355,19.0,27.0,72,0.00,,,0.00,PyWeather,2013-08-24 03:18:00,
2013-08-23 17:23:00,80.3,71.1,29.81,NW,326,20.0,27.0,73,0.00,,,0.00,PyWeather,2013-08-24 03:23:00,
2013-08-23 17:28:00,80.3,71.1,29.81,NNW,345,21.0,28.0,73,0.00,,,0.00,PyWeather,2013-08-24 03:28:00,
2013-08-23 17:33:00,80.5,70.9,29.81,NNW,347,19.0,28.0,72,0.00,,,0.00,PyWeather,2013-08-24 03:33:00,
2013-08-23 17:38:00,79.9,70.7,29.81,NNW,331,20.0,26.0,73,0.00,,,0.00,PyWeather,2013-08-24 03:38:00,
2013-08-23 17:43:00,79.8,70.6,29.81,NW,323,21.0,26.0,73,0.00,,,0.00,PyWeather,2013-08-24 03:43:00,
2013-08-23 17:48:00,79.8,70.6,29.81,NNW,335,20.0,29.0,73,0.00,,,0.00,PyWeather,2013-08-24 03:48:00,
2013-08-23 17:53:00,79.7,70.5,29.81,NNW,335,21.0,29.0,73,0.00,,,0.00,PyWeather,2013-08-24 03:53:00,
2013-08-23 17:58:00,79.5,70.3,29.81,NW,326,20.0,29.0,73,0.00,,,0.00,PyWeather,2013-08-24 03:58:00,
2013-08-23 18:01:00,79.3,70.5,29.81,NNW,327,21.0,29.0,74,0.00,,,0.00,PyWeather,2013-08-24 04:01:00,
2013-08-23 18:02:00,79.4,70.6,29.81,NW,309,20.0,29.0,74,0.00,,,0.00,PyWeather,2013-08-24 04:02:00,
2013-08-23 18:07:00,79.3,70.5,29.82,NNW,330,20.0,29.0,74,0.00,,,0.00,PyWeather,2013-08-24 04:07:00,
2013-08-23 18:12:00,79.2,70.4,29.82,NNW,329,19.0,29.0,74,0.00,,,0.00,PyWeather,2013-08-24 04:12:00,
2013-08-23 18:17:00,79.0,70.2,29.82,NNW,336,19.0,26.0,74,0.00,,,0.00,PyWeather,2013-08-24 04:17:00,
2013-08-23 18:22:00,78.9,70.5,29.82,NNW,334,18.0,26.0,75,0.00,,,0.00,PyWeather,2013-08-24 04:22:00,
2013-08-23 18:27:00,78.7,70.3,29.82,NW,321,19.0,28.0,75,0.00,,,0.00,PyWeather,2013-08-24 04:27:00,
2013-08-23 18:32:00,78.5,70.1,29.82,NNW,332,19.0,28.0,75,0.00,,,0.00,PyWeather,2013-08-24 04:32:00,
2013-08-23 18:37:00,78.5,70.1,29.82,NNW,327,18.0,25.0,75,0.00,,,0.00,PyWeather,2013-08-24 04:37:00,
2013-08-23 18:42:00,78.3,69.9,29.82,NW,323,18.0,25.0,75,0.00,,,0.00,PyWeather,2013-08-24 04:42:00,
2013-08-23 18:47:00,78.2,69.8,29.83,NNW,327,18.0,-999.0,75,0.00,,,0.00,PyWeather,2013-08-24 04:47:00,
2013-08-23 18:52:00,78.1,69.7,29.83,NNW,334,18.0,-999.0,75,0.00,,,0.00,PyWeather,2013-08-24 04:52:00,
2013-08-23 18:57:00,78.2,69.8,29.83,NW,325,18.0,26.0,75,0.00,,,0.00,PyWeather,2013-08-24 04:57:00,
2013-08-23 19:02:00,78.1,69.7,29.83,NW,325,19.0,26.0,75,0.00,,,0.00,PyWeather,2013-08-24 05:02:00,
2013-08-23 19:07:00,78.0,69.6,29.83,NNW,336,18.0,26.0,75,0.00,,,0.00,PyWeather,2013-08-24 05:07:00,
2013-08-23 19:12:00,77.9,69.5,29.83,NW,307,18.0,26.0,75,0.00,,,0.00,PyWeather,2013-08-24 05:12:00,
2013-08-23 19:17:00,78.0,70.0,29.84,NW,308,18.0,26.0,76,0.00,,,0.00,PyWeather,2013-08-24 05:17:00,
2013-08-23 19:22:00,78.0,70.0,29.84,NNW,332,17.0,26.0,76,0.00,,,0.00,PyWeather,2013-08-24 05:22:00,
2013-08-23 19:27:00,78.0,70.0,29.84,NW,323,16.0,-999.0,76,0.00,,,0.00,PyWeather,2013-08-24 05:27:00,
2013-08-23 19:32:00,78.0,70.0,29.84,NNW,327,16.0,-999.0,76,0.00,,,0.00,PyWeather,2013-08-24 05:32:00,
2013-08-23 19:37:00,77.9,69.9,29.85,NNW,333,15.0,23.0,76,0.00,,,0.00,PyWeather,2013-08-24 05:37:00,
2013-08-23 19:42:00,77.8,69.8,29.85,NW,320,15.0,23.0,76,0.00,,,0.00,PyWeather,2013-08-24 05:42:00,
2013-08-23 19:47:00,77.8,69.8,29.85,NW,323,15.0,22.0,76,0.00,,,0.00,PyWeather,2013-08-24 05:47:00,
2013-08-23 19:52:00,77.6,69.6,29.85,NNW,329,14.0,22.0,76,0.00,,,0.00,PyWeather,2013-08-24 05:52:00,
2013-08-23 19:57:00,77.5,69.1,29.85,NNW,329,12.0,-999.0,75,0.00,,,0.00,PyWeather,2013-08-24 05:57:00,
2013-08-23 20:02:00,77.4,69.0,29.86,NNW,342,12.0,-999.0,75,0.00,,,0.00,PyWeather,2013-08-24 06:02:00,
2013-08-23 20:08:00,77.2,68.4,29.86,NNW,343,12.0,-999.0,74,0.00,,,0.00,PyWeather,2013-08-24 06:08:00,
2013-08-23 20:13:00,77.0,68.3,29.86,NNW,336,11.0,-999.0,74,0.00,,,0.00,PyWeather,2013-08-24 06:13:00,
2013-08-23 20:18:00,77.1,68.3,29.87,NNW,346,11.0,-999.0,74,0.00,,,0.00,PyWeather,2013-08-24 06:18:00,
2013-08-23 20:23:00,77.2,68.1,29.87,NNW,338,11.0,-999.0,73,0.00,,,0.00,PyWeather,2013-08-24 06:23:00,
2013-08-23 20:28:00,77.2,68.1,29.88,North,350,11.0,-999.0,73,0.00,,,0.00,PyWeather,2013-08-24 06:28:00,
2013-08-23 20:33:00,77.1,68.0,29.88,North,355,10.0,-999.0,73,0.00,,,0.00,PyWeather,2013-08-24 06:33:00,
2013-08-23 20:38:00,76.8,67.7,29.88,North,5,9.0,-999.0,73,0.00,,,0.00,PyWeather,2013-08-24 06:38:00,
2013-08-23 20:43:00,76.5,67.4,29.88,North,355,8.0,-999.0,73,0.00,,,0.00,PyWeather,2013-08-24 06:43:00,
2013-08-23 20:48:00,76.2,67.5,29.88,North,360,6.0,-999.0,74,0.00,,,0.00,PyWeather,2013-08-24 06:48:00,
2013-08-23 20:53:00,76.0,67.3,29.88,North,360,5.0,-999.0,74,0.00,,,0.00,PyWeather,2013-08-24 06:53:00,
2013-08-23 20:58:00,75.7,67.0,29.89,North,360,5.0,-999.0,74,0.00,,,0.00,PyWeather,2013-08-24 06:58:00,
2013-08-23 21:03:00,75.6,67.6,29.89,NNW,342,5.0,-999.0,76,0.00,,,0.00,PyWeather,2013-08-24 07:03:00,
2013-08-23 21:08:00,75.5,67.9,29.89,North,355,7.0,-999.0,77,0.00,,,0.00,PyWeather,2013-08-24 07:08:00,
2013-08-23 21:13:00,75.5,67.9,29.89,North,355,9.0,-999.0,77,0.00,,,0.00,PyWeather,2013-08-24 07:13:00,
2013-08-23 21:18:00,75.5,68.3,29.89,North,350,9.0,-999.0,78,0.00,,,0.00,PyWeather,2013-08-24 07:18:00,
2013-08-23 21:23:00,75.8,68.6,29.90,NNW,348,10.0,-999.0,78,0.00,,,0.00,PyWeather,2013-08-24 07:23:00,
2013-08-23 21:28:00,75.9,68.3,29.90,North,355,10.0,-999.0,77,0.00,,,0.00,PyWeather,2013-08-24 07:28:00,
2013-08-23 21:33:00,75.9,68.3,29.90,NNE,15,8.0,-999.0,77,0.00,,,0.00,PyWeather,2013-08-24 07:33:00,
2013-08-23 21:38:00,75.8,68.2,29.90,North,5,9.0,-999.0,77,0.00,,,0.00,PyWeather,2013-08-24 07:38:00,
2013-08-23 21:43:00,76.4,68.1,29.90,NNE,13,10.0,-999.0,75,0.00,,,0.00,PyWeather,2013-08-24 07:43:00,
2013-08-23 21:48:00,75.9,67.2,29.91,North,360,9.0,16.0,74,0.00,,,0.00,PyWeather,2013-08-24 07:48:00,
2013-08-23 21:53:00,74.9,67.0,29.91,North,360,8.0,16.0,76,0.00,,,0.00,PyWeather,2013-08-24 07:53:00,
2013-08-23 21:58:00,74.6,67.0,29.91,North,355,9.0,-999.0,77,0.00,,,0.00,PyWeather,2013-08-24 07:58:00,
2013-08-23 22:03:00,74.7,67.5,29.91,North,5,9.0,-999.0,78,0.00,,,0.00,PyWeather,2013-08-24 08:03:00,
2013-08-23 22:08:00,74.7,67.5,29.91,North,360,7.0,-999.0,78,0.00,,,0.00,PyWeather,2013-08-24 08:08:00,
2013-08-23 22:13:00,74.5,67.7,29.91,North,360,5.0,-999.0,79,0.00,,,0.00,PyWeather,2013-08-24 08:13:00,
2013-08-23 22:18:00,74.2,67.4,29.91,North,355,5.0,-999.0,79,0.00,,,0.00,PyWeather,2013-08-24 08:18:00,
2013-08-23 22:23:00,73.8,67.3,29.91,North,355,5.0,-999.0,80,0.00,,,0.00,PyWeather,2013-08-24 08:23:00,
2013-08-23 22:28:00,73.6,67.1,29.91,North,355,3.0,-999.0,80,0.00,,,0.00,PyWeather,2013-08-24 08:28:00,
2013-08-23 22:33:00,73.3,66.8,29.91,North,355,0.0,-999.0,80,0.00,,,0.00,PyWeather,2013-08-24 08:33:00,
2013-08-23 22:38:00,73.0,66.9,29.91,North,355,0.0,-999.0,81,0.00,,,0.00,PyWeather,2013-08-24 08:38:00,
2013-08-23 22:43:00,72.6,66.5,29.91,North,355,0.0,-999.0,81,0.00,,,0.00,PyWeather,2013-08-24 08:43:00,
2013-08-23 22:48:00,72.2,66.5,29.91,North,9,1.0,-999.0,82,0.00,,,0.00,PyWeather,2013-08-24 08:48:00,
2013-08-23 22:53:00,72.1,66.4,29.91,North,11,2.0,-999.0,82,0.00,,,0.00,PyWeather,2013-08-24 08:53:00,
2013-08-23 22:58:00,72.0,66.3,29.91,North,9,3.0,-999.0,82,0.00,,,0.00,PyWeather,2013-08-24 08:58:00,
2013-08-23 23:03:00,72.0,66.3,29.91,North,5,3.0,-999.0,82,0.00,,,0.00,PyWeather,2013-08-24 09:03:00,
2013-08-23 23:08:00,72.1,66.7,29.91,North,5,1.0,-999.0,83,0.00,,,0.00,PyWeather,2013-08-24 09:08:00,
2013-08-23 23:13:00,72.4,67.0,29.91,North,5,0.0,-999.0,83,0.00,,,0.00,PyWeather,2013-08-24 09:13:00,
2013-08-23 23:18:00,72.4,67.0,29.91,North,9,1.0,-999.0,83,0.00,,,0.00,PyWeather,2013-08-24 09:18:00,
2013-08-23 23:23:00,72.3,66.9,29.91,North,9,1.0,-999.0,83,0.00,,,0.00,PyWeather,2013-08-24 09:23:00,
2013-08-23 23:28:00,72.3,66.9,29.91,North,5,1.0,-999.0,83,0.00,,,0.00,PyWeather,2013-08-24 09:28:00,
2013-08-23 23:33:00,72.3,66.9,29.91,North,5,2.0,-999.0,83,0.00,,,0.00,PyWeather,2013-08-24 09:33:00,
2013-08-23 23:38:00,72.2,66.8,29.91,NNE,25,3.0,-999.0,83,0.00,,,0.00,PyWeather,2013-08-24 09:38:00,
2013-08-23 23:43:00,72.0,66.6,29.91,NNE,32,2.0,-999.0,83,0.00,,,0.00,PyWeather,2013-08-24 09:43:00,
2013-08-23 23:48:00,71.9,66.5,29.91,NNE,30,1.0,-999.0,83,0.00,,,0.00,PyWeather,2013-08-24 09:48:00,
2013-08-23 23:53:00,71.8,66.1,29.91,NNE,32,0.0,-999.0,82,0.00,,,0.00,PyWeather,2013-08-24 09:53:00,
2013-08-23 23:58:00,71.6,66.2,29.91,NNE,31,0.0,-999.0,83,0.00,,,0.00,PyWeather,2013-08-24 09:58:00,